Terminal Aerodrome Forecast
Issued by NWS

Home | Current Version | Previous Version | Text Only | Print | Product List | Glossary On
Versions: 1 2 3 4 5 6 7 8 9 10 11 12 13 14 15 16 17 18 19 20 21
000
FTUS46 KPDT 230100 AAA
TAFBDN
TAF AMD
KBDN 230137Z 2302/2324 VRB04KT P6SM FEW030 OVC070
     FM230800 21005KT P6SM OVC050
     FM231800 19008KT P6SM SCT060 SCT250=

USA.gov is the U.S. government's official web portal to all federal, state and local government web resources and services.